Location: Helion Bumpstead
(52.0500°N, 0.4000°E)
Time: 12:18:35
(UTC+00:00)

ARGOS - Pass Details

Date: 15 November 2025
Orbit: 819 x 832 km, 98.5° (Epoch: 09 December)

Event Time Altitude Azimuth Distance (km) Brightness Sun altitude
Rises 05:13:05 0° 10° (N) 3,392 6.4 -19.1°
Reaches altitude 10° 05:15:38 10° 1° (N) 2,455 5.6 -18.7°
Maximum altitude 05:20:28 34° 299° (WNW) 1,347 3.8 -17.9°
Enters shadow 05:21:48 30° 270° (W) 1,459 3.9 -17.7°
